Time,TemperatureF,DewpointF,PressureIn,WindDirection,WindDirectionDegrees,WindSpeedMPH,WindSpeedGustMPH,Humidity,HourlyPrecipIn,Conditions,Clouds,dailyrainin,SoftwareType,DateUTC
2013-06-11 00:02:00,62.0,53.0,29.91,WNW,299,0.0,-999.0,73,-99.99,,,-99.99,,2013-06-11 07:02:00,
2013-06-11 00:12:00,61.0,53.0,29.91,WNW,299,0.0,-999.0,75,-99.99,,,-99.99,,2013-06-11 07:12:00,
2013-06-11 00:22:00,61.0,53.0,29.91,WNW,299,0.0,-999.0,75,-99.99,,,-99.99,,2013-06-11 07:22:00,
2013-06-11 00:32:00,61.0,54.0,29.90,WNW,299,0.0,-999.0,77,-99.99,,,-99.99,,2013-06-11 07:32:00,
2013-06-11 00:42:00,61.0,54.0,29.90,WNW,299,0.0,-999.0,77,-99.99,,,-99.99,,2013-06-11 07:42:00,
2013-06-11 00:52:00,61.0,54.0,29.90,WNW,299,0.0,-999.0,77,-99.99,,,-99.99,,2013-06-11 07:52:00,
2013-06-11 01:02:00,60.0,53.0,29.91,WNW,299,0.0,-999.0,78,-99.99,,,-99.99,,2013-06-11 08:02:00,
2013-06-11 01:11:00,60.0,53.0,29.91,WNW,299,0.0,-999.0,78,-99.99,,,-99.99,,2013-06-11 08:11:00,
2013-06-11 01:22:00,60.0,54.0,29.91,WNW,299,0.0,-999.0,80,-99.99,,,-99.99,,2013-06-11 08:22:00,
2013-06-11 01:32:00,60.0,54.0,29.91,WNW,299,0.0,-999.0,80,-99.99,,,-99.99,,2013-06-11 08:32:00,
2013-06-11 01:42:00,59.0,53.0,29.90,WNW,299,0.0,-999.0,81,-99.99,,,-99.99,,2013-06-11 08:42:00,
2013-06-11 01:52:00,59.0,53.0,29.90,WNW,299,0.0,-999.0,81,-99.99,,,-99.99,,2013-06-11 08:52:00,
2013-06-11 02:02:00,59.0,54.0,29.90,WNW,299,0.0,-999.0,83,-99.99,,,-99.99,,2013-06-11 09:02:00,
2013-06-11 02:11:00,59.0,54.0,29.90,WNW,299,0.0,-999.0,83,-99.99,,,-99.99,,2013-06-11 09:11:00,
2013-06-11 02:22:00,59.0,54.0,29.89,WNW,299,0.0,-999.0,83,-99.99,,,-99.99,,2013-06-11 09:22:00,
2013-06-11 02:33:00,58.0,53.0,29.90,WNW,299,0.0,-999.0,84,-99.99,,,-99.99,,2013-06-11 09:33:00,
2013-06-11 02:43:00,58.0,53.0,29.90,WNW,299,0.0,-999.0,84,-99.99,,,-99.99,,2013-06-11 09:43:00,
2013-06-11 02:53:00,58.0,53.0,29.90,WNW,299,0.0,-999.0,84,-99.99,,,-99.99,,2013-06-11 09:53:00,
2013-06-11 03:03:00,58.0,53.0,29.90,WNW,299,0.0,-999.0,84,-99.99,,,-99.99,,2013-06-11 10:03:00,
2013-06-11 03:12:00,58.0,53.0,29.90,WNW,299,0.0,-999.0,84,-99.99,,,-99.99,,2013-06-11 10:12:00,
2013-06-11 03:22:00,57.0,53.0,29.90,WNW,299,0.0,-999.0,85,-99.99,,,-99.99,,2013-06-11 10:22:00,
2013-06-11 03:33:00,57.0,53.0,29.90,WNW,299,0.0,-999.0,85,-99.99,,,-99.99,,2013-06-11 10:33:00,
2013-06-11 03:42:00,57.0,53.0,29.90,WNW,299,0.0,-999.0,85,-99.99,,,-99.99,,2013-06-11 10:42:00,
2013-06-11 03:52:00,57.0,53.0,29.90,WNW,299,0.0,-999.0,85,-99.99,,,-99.99,,2013-06-11 10:52:00,
2013-06-11 04:02:00,57.0,53.0,29.90,WNW,299,0.0,-999.0,86,-99.99,,,-99.99,,2013-06-11 11:02:00,
2013-06-11 04:12:00,57.0,53.0,29.90,WNW,299,0.0,-999.0,86,-99.99,,,-99.99,,2013-06-11 11:12:00,
2013-06-11 04:22:00,57.0,53.0,29.90,WNW,299,0.0,-999.0,87,-99.99,,,-99.99,,2013-06-11 11:22:00,
2013-06-11 04:32:00,56.0,52.0,29.90,WNW,299,0.0,-999.0,87,-99.99,,,-99.99,,2013-06-11 11:32:00,
2013-06-11 04:41:00,56.0,52.0,29.90,WNW,299,0.0,-999.0,87,-99.99,,,-99.99,,2013-06-11 11:41:00,
2013-06-11 04:52:00,56.0,52.0,29.90,WNW,299,0.0,-999.0,87,-99.99,,,-99.99,,2013-06-11 11:52:00,
2013-06-11 05:02:00,56.0,53.0,29.90,WNW,299,0.0,-999.0,89,-99.99,,,-99.99,,2013-06-11 12:02:00,
2013-06-11 05:12:00,56.0,53.0,29.90,WNW,299,0.0,-999.0,89,-99.99,,,-99.99,,2013-06-11 12:12:00,
2013-06-11 05:22:00,56.0,53.0,29.90,WNW,299,0.0,-999.0,89,-99.99,,,-99.99,,2013-06-11 12:22:00,
2013-06-11 05:32:00,56.0,52.0,29.90,WNW,299,0.0,-999.0,88,-99.99,,,-99.99,,2013-06-11 12:32:00,
2013-06-11 05:42:00,56.0,52.0,29.90,WNW,299,0.0,-999.0,88,-99.99,,,-99.99,,2013-06-11 12:42:00,
2013-06-11 05:52:00,56.0,52.0,29.90,WNW,299,0.0,-999.0,88,-99.99,,,-99.99,,2013-06-11 12:52:00,
2013-06-11 06:02:00,56.0,52.0,29.91,WNW,299,0.0,-999.0,88,-99.99,,,-99.99,,2013-06-11 13:02:00,
2013-06-11 06:11:00,56.0,52.0,29.91,WNW,299,0.0,-999.0,88,-99.99,,,-99.99,,2013-06-11 13:11:00,
2013-06-11 06:22:00,56.0,52.0,29.91,WNW,299,0.0,-999.0,88,-99.99,,,-99.99,,2013-06-11 13:22:00,
2013-06-11 06:32:00,56.0,52.0,29.91,WNW,299,0.0,-999.0,88,-99.99,,,-99.99,,2013-06-11 13:32:00,
2013-06-11 06:42:00,56.0,52.0,29.91,WNW,299,0.0,-999.0,88,-99.99,,,-99.99,,2013-06-11 13:42:00,
2013-06-11 06:52:00,56.0,52.0,29.91,WNW,299,0.0,-999.0,88,-99.99,,,-99.99,,2013-06-11 13:52:00,
2013-06-11 07:02:00,56.0,52.0,29.91,WNW,299,0.0,-999.0,88,-99.99,,,-99.99,,2013-06-11 14:02:00,
2013-06-11 07:12:00,56.0,52.0,29.91,WNW,299,0.0,-999.0,88,-99.99,,,-99.99,,2013-06-11 14:12:00,
2013-06-11 07:22:00,57.0,53.0,29.92,WNW,299,0.0,-999.0,87,-99.99,,,-99.99,,2013-06-11 14:22:00,
2013-06-11 07:32:00,59.0,54.0,29.92,WNW,299,0.0,-999.0,84,-99.99,,,-99.99,,2013-06-11 14:32:00,
2013-06-11 07:42:00,59.0,54.0,29.92,WNW,299,0.0,-999.0,84,-99.99,,,-99.99,,2013-06-11 14:42:00,
2013-06-11 07:52:00,60.0,54.0,29.92,WNW,299,0.0,-999.0,81,-99.99,,,-99.99,,2013-06-11 14:52:00,
2013-06-11 08:02:00,62.0,55.0,29.91,WNW,298,0.0,-999.0,78,-99.99,,,-99.99,,2013-06-11 15:02:00,
2013-06-11 08:12:00,62.0,55.0,29.91,WNW,298,0.0,-999.0,78,-99.99,,,-99.99,,2013-06-11 15:12:00,
2013-06-11 08:22:00,62.0,54.0,29.92,WNW,298,0.0,-999.0,76,-99.99,,,-99.99,,2013-06-11 15:22:00,
2013-06-11 08:33:00,63.0,55.0,29.93,WNW,298,0.0,-999.0,75,-99.99,,,-99.99,,2013-06-11 15:33:00,
2013-06-11 08:42:00,63.0,55.0,29.93,WNW,298,0.0,-999.0,75,-99.99,,,-99.99,,2013-06-11 15:42:00,
2013-06-11 08:53:00,64.0,55.0,29.93,WNW,298,0.0,-999.0,73,-99.99,,,-99.99,,2013-06-11 15:53:00,
2013-06-11 09:02:00,65.0,55.0,29.93,NW,320,0.0,-999.0,70,-99.99,,,-99.99,,2013-06-11 16:02:00,
2013-06-11 09:12:00,65.0,55.0,29.93,NW,320,0.0,-999.0,70,-99.99,,,-99.99,,2013-06-11 16:12:00,
2013-06-11 09:22:00,66.0,55.0,29.93,NW,317,0.0,-999.0,68,-99.99,,,-99.99,,2013-06-11 16:22:00,
2013-06-11 09:32:00,67.0,56.0,29.93,NW,317,0.0,-999.0,67,-99.99,,,-99.99,,2013-06-11 16:32:00,
2013-06-11 09:42:00,68.0,55.0,29.94,NW,317,0.0,-999.0,64,-99.99,,,-99.99,,2013-06-11 16:42:00,
2013-06-11 09:52:00,68.0,55.0,29.94,NW,317,0.0,-999.0,64,-99.99,,,-99.99,,2013-06-11 16:52:00,
2013-06-11 10:02:00,69.0,56.0,29.94,WNW,299,0.0,-999.0,64,-99.99,,,-99.99,,2013-06-11 17:02:00,
2013-06-11 10:12:00,69.0,56.0,29.94,WNW,299,0.0,-999.0,64,-99.99,,,-99.99,,2013-06-11 17:12:00,
2013-06-11 10:22:00,71.0,56.0,29.94,WNW,299,0.0,-999.0,60,-99.99,,,-99.99,,2013-06-11 17:22:00,
2013-06-11 10:32:00,72.0,57.0,29.94,NW,307,0.0,-999.0,60,-99.99,,,-99.99,,2013-06-11 17:32:00,
2013-06-11 10:42:00,73.0,57.0,29.94,NW,304,1.0,-999.0,57,-99.99,,,-99.99,,2013-06-11 17:42:00,
2013-06-11 10:52:00,73.0,57.0,29.94,NW,304,1.0,-999.0,57,-99.99,,,-99.99,,2013-06-11 17:52:00,
2013-06-11 11:02:00,74.0,57.0,29.94,NNW,346,0.0,-999.0,55,-99.99,,,-99.99,,2013-06-11 18:02:00,
2013-06-11 11:11:00,74.0,57.0,29.94,NNW,346,0.0,-999.0,55,-99.99,,,-99.99,,2013-06-11 18:11:00,
2013-06-11 11:22:00,75.0,57.0,29.94,NNW,331,0.0,-999.0,54,-99.99,,,-99.99,,2013-06-11 18:22:00,
2013-06-11 11:32:00,76.0,58.0,29.94,NW,315,0.0,-999.0,53,-99.99,,,-99.99,,2013-06-11 18:32:00,
2013-06-11 11:42:00,76.0,58.0,29.94,NW,315,0.0,-999.0,53,-99.99,,,-99.99,,2013-06-11 18:42:00,
2013-06-11 11:52:00,76.0,58.0,29.95,NW,311,0.0,-999.0,53,-99.99,,,-99.99,,2013-06-11 18:52:00,
2013-06-11 12:02:00,77.0,57.0,29.94,North,5,0.0,-999.0,50,-99.99,,,-99.99,,2013-06-11 19:02:00,
2013-06-11 12:11:00,77.0,57.0,29.94,North,5,0.0,-999.0,50,-99.99,,,-99.99,,2013-06-11 19:11:00,
2013-06-11 12:22:00,78.0,58.0,29.94,ESE,113,0.0,-999.0,50,-99.99,,,-99.99,,2013-06-11 19:22:00,
2013-06-11 12:32:00,79.0,58.0,29.94,ESE,109,1.0,-999.0,48,-99.99,,,-99.99,,2013-06-11 19:32:00,
2013-06-11 12:42:00,79.0,58.0,29.94,ESE,109,1.0,-999.0,48,-99.99,,,-99.99,,2013-06-11 19:42:00,
2013-06-11 12:52:00,80.0,57.0,29.93,SE,132,0.0,-999.0,45,-99.99,,,-99.99,,2013-06-11 19:52:00,
2013-06-11 13:02:00,79.0,56.0,29.93,SE,134,1.0,-999.0,45,-99.99,,,-99.99,,2013-06-11 20:02:00,
2013-06-11 13:12:00,79.0,56.0,29.93,SE,134,1.0,-999.0,45,-99.99,,,-99.99,,2013-06-11 20:12:00,
2013-06-11 13:21:00,80.0,56.0,29.92,SSW,212,1.0,-999.0,44,-99.99,,,-99.99,,2013-06-11 20:21:00,
2013-06-11 13:32:00,80.0,56.0,29.92,West,281,1.0,-999.0,44,-99.99,,,-99.99,,2013-06-11 20:32:00,
2013-06-11 13:42:00,80.0,56.0,29.92,West,281,1.0,-999.0,44,-99.99,,,-99.99,,2013-06-11 20:42:00,
2013-06-11 13:52:00,80.0,56.0,29.92,West,281,1.0,-999.0,44,-99.99,,,-99.99,,2013-06-11 20:52:00,
2013-06-11 14:02:00,82.0,57.0,29.91,WNW,297,0.0,-999.0,42,-99.99,,,-99.99,,2013-06-11 21:02:00,
2013-06-11 14:12:00,82.0,57.0,29.91,WNW,297,0.0,-999.0,42,-99.99,,,-99.99,,2013-06-11 21:12:00,
2013-06-11 14:22:00,82.0,56.0,29.91,West,280,0.0,-999.0,41,-99.99,,,-99.99,,2013-06-11 21:22:00,
2013-06-11 14:32:00,82.0,56.0,29.90,West,270,1.0,-999.0,41,-99.99,,,-99.99,,2013-06-11 21:32:00,
2013-06-11 14:42:00,82.0,56.0,29.90,West,270,1.0,-999.0,41,-99.99,,,-99.99,,2013-06-11 21:42:00,
2013-06-11 14:52:00,83.0,58.0,29.90,WNW,300,1.0,-999.0,42,-99.99,,,-99.99,,2013-06-11 21:52:00,
2013-06-11 15:03:00,83.0,58.0,29.89,West,275,0.0,-999.0,42,-99.99,,,-99.99,,2013-06-11 22:03:00,
2013-06-11 15:12:00,83.0,58.0,29.89,West,275,0.0,-999.0,42,-99.99,,,-99.99,,2013-06-11 22:12:00,
2013-06-11 15:22:00,83.0,56.0,29.89,NW,306,0.0,-999.0,40,-99.99,,,-99.99,,2013-06-11 22:22:00,
2013-06-11 15:32:00,84.0,58.0,29.88,WNW,298,1.0,-999.0,41,-99.99,,,-99.99,,2013-06-11 22:32:00,
2013-06-11 15:42:00,84.0,58.0,29.88,WNW,298,1.0,-999.0,41,-99.99,,,-99.99,,2013-06-11 22:42:00,
2013-06-11 15:52:00,84.0,57.0,29.88,WNW,291,0.0,-999.0,40,-99.99,,,-99.99,,2013-06-11 22:52:00,
2013-06-11 16:02:00,83.0,57.0,29.87,WNW,290,1.0,-999.0,41,-99.99,,,-99.99,,2013-06-11 23:02:00,
2013-06-11 16:11:00,83.0,57.0,29.87,WNW,290,1.0,-999.0,41,-99.99,,,-99.99,,2013-06-11 23:11:00,
2013-06-11 16:22:00,84.0,56.0,29.88,West,274,1.0,-999.0,39,-99.99,,,-99.99,,2013-06-11 23:22:00,
2013-06-11 16:32:00,84.0,56.0,29.87,West,265,1.0,-999.0,39,-99.99,,,-99.99,,2013-06-11 23:32:00,
2013-06-11 16:42:00,84.0,56.0,29.87,West,265,1.0,-999.0,39,-99.99,,,-99.99,,2013-06-11 23:42:00,
2013-06-11 16:52:00,84.0,56.0,29.86,West,263,0.0,-999.0,39,-99.99,,,-99.99,,2013-06-11 23:52:00,
2013-06-11 17:02:00,85.0,57.0,29.86,West,262,1.0,-999.0,38,-99.99,,,-99.99,,2013-06-12 00:02:00,
2013-06-11 17:12:00,84.0,56.0,29.85,West,263,1.0,-999.0,38,-99.99,,,-99.99,,2013-06-12 00:12:00,
2013-06-11 17:22:00,84.0,56.0,29.85,West,263,1.0,-999.0,38,-99.99,,,-99.99,,2013-06-12 00:22:00,
2013-06-11 17:32:00,84.0,54.0,29.85,West,263,1.0,-999.0,36,-99.99,,,-99.99,,2013-06-12 00:32:00,
2013-06-11 17:42:00,84.0,54.0,29.85,West,263,1.0,-999.0,36,-99.99,,,-99.99,,2013-06-12 00:42:00,
2013-06-11 17:52:00,84.0,55.0,29.85,West,263,0.0,-999.0,37,-99.99,,,-99.99,,2013-06-12 00:52:00,
2013-06-11 18:02:00,84.0,56.0,29.84,West,263,0.0,-999.0,39,-99.99,,,-99.99,,2013-06-12 01:02:00,
2013-06-11 18:22:00,83.0,55.0,29.84,West,265,0.0,-999.0,38,-99.99,,,-99.99,,2013-06-12 01:22:00,
2013-06-11 18:42:00,83.0,55.0,29.84,West,271,0.0,-999.0,39,-99.99,,,-99.99,,2013-06-12 01:42:00,
2013-06-11 18:52:00,83.0,57.0,29.83,West,264,0.0,-999.0,41,-99.99,,,-99.99,,2013-06-12 01:52:00,
2013-06-11 19:02:00,82.0,57.0,29.84,West,270,0.0,-999.0,42,-99.99,,,-99.99,,2013-06-12 02:02:00,
2013-06-11 19:12:00,82.0,57.0,29.84,West,270,0.0,-999.0,42,-99.99,,,-99.99,,2013-06-12 02:12:00,
2013-06-11 19:22:00,82.0,55.0,29.83,West,271,0.0,-999.0,40,-99.99,,,-99.99,,2013-06-12 02:22:00,
2013-06-11 19:32:00,82.0,55.0,29.83,West,271,0.0,-999.0,40,-99.99,,,-99.99,,2013-06-12 02:32:00,
2013-06-11 19:42:00,81.0,53.0,29.83,West,261,0.0,-999.0,38,-99.99,,,-99.99,,2013-06-12 02:42:00,
2013-06-11 19:52:00,81.0,53.0,29.83,West,261,0.0,-999.0,38,-99.99,,,-99.99,,2013-06-12 02:52:00,
2013-06-11 20:01:00,81.0,52.0,29.83,West,261,0.0,-999.0,36,-99.99,,,-99.99,,2013-06-12 03:01:00,
2013-06-11 20:12:00,81.0,52.0,29.83,West,261,0.0,-999.0,36,-99.99,,,-99.99,,2013-06-12 03:12:00,
2013-06-11 20:22:00,81.0,52.0,29.83,West,271,0.0,-999.0,37,-99.99,,,-99.99,,2013-06-12 03:22:00,
2013-06-11 20:32:00,81.0,56.0,29.83,West,271,0.0,-999.0,43,-99.99,,,-99.99,,2013-06-12 03:32:00,
2013-06-11 20:42:00,81.0,56.0,29.83,West,271,0.0,-999.0,43,-99.99,,,-99.99,,2013-06-12 03:42:00,
2013-06-11 20:53:00,79.0,56.0,29.83,West,261,0.0,-999.0,46,-99.99,,,-99.99,,2013-06-12 03:53:00,
2013-06-11 21:02:00,78.0,57.0,29.83,West,261,0.0,-999.0,48,-99.99,,,-99.99,,2013-06-12 04:02:00,
2013-06-11 21:12:00,78.0,57.0,29.83,West,261,0.0,-999.0,48,-99.99,,,-99.99,,2013-06-12 04:12:00,
2013-06-11 21:22:00,76.0,56.0,29.83,West,261,0.0,-999.0,50,-99.99,,,-99.99,,2013-06-12 04:22:00,
2013-06-11 21:33:00,76.0,56.0,29.83,West,261,0.0,-999.0,50,-99.99,,,-99.99,,2013-06-12 04:33:00,
2013-06-11 21:42:00,76.0,56.0,29.83,West,261,0.0,-999.0,50,-99.99,,,-99.99,,2013-06-12 04:42:00,
2013-06-11 21:52:00,75.0,56.0,29.84,West,261,0.0,-999.0,51,-99.99,,,-99.99,,2013-06-12 04:52:00,
2013-06-11 22:02:00,74.0,56.0,29.84,West,261,0.0,-999.0,54,-99.99,,,-99.99,,2013-06-12 05:02:00,
2013-06-11 22:12:00,73.0,56.0,29.85,West,261,0.0,-999.0,56,-99.99,,,-99.99,,2013-06-12 05:12:00,
2013-06-11 22:22:00,73.0,56.0,29.85,West,261,0.0,-999.0,56,-99.99,,,-99.99,,2013-06-12 05:22:00,
2013-06-11 22:32:00,72.0,56.0,29.85,West,261,0.0,-999.0,58,-99.99,,,-99.99,,2013-06-12 05:32:00,
2013-06-11 22:42:00,71.0,56.0,29.85,West,261,0.0,-999.0,59,-99.99,,,-99.99,,2013-06-12 05:42:00,
2013-06-11 22:52:00,71.0,56.0,29.85,West,261,0.0,-999.0,59,-99.99,,,-99.99,,2013-06-12 05:52:00,
2013-06-11 23:01:00,70.0,55.0,29.85,West,261,0.0,-999.0,60,-99.99,,,-99.99,,2013-06-12 06:01:00,
2013-06-11 23:12:00,70.0,55.0,29.85,West,261,0.0,-999.0,60,-99.99,,,-99.99,,2013-06-12 06:12:00,
2013-06-11 23:22:00,70.0,56.0,29.85,West,261,0.0,-999.0,61,-99.99,,,-99.99,,2013-06-12 06:22:00,
2013-06-11 23:32:00,69.0,55.0,29.85,West,261,0.0,-999.0,61,-99.99,,,-99.99,,2013-06-12 06:32:00,
2013-06-11 23:42:00,69.0,55.0,29.85,West,261,0.0,-999.0,61,-99.99,,,-99.99,,2013-06-12 06:42:00,
2013-06-11 23:52:00,68.0,54.0,29.85,West,261,0.0,-999.0,61,-99.99,,,-99.99,,2013-06-12 06:52:00,